Погода в Аиме

Россия / Хабаровский край     58°46′26″N   134°15′09″E
темп.,
°C
ветер,
м/с
пор.,
м/с
влажн.,
%
обл.,
%
осадки,
мм/ч
давл.,
гПа
погр.,
м
25 июня, сб
сб2501:00+14сз11730 0.0 100110
04:00+12сз11755 0.0 100110
07:00+18сз11625 0.0 1002123
10:00+24ссз12430 0.0 1001862
13:00+27с12370 0.0 10012145
16:00+28ссв12320 0.0 10002484
19:00+27ссв12415 0.0 10002192
22:00+19сз11675 0.0 100111
26 июня, вс
вс2601:00+15св01745 0.0 100211
04:00+14ю11805 0.0 100311
07:00+18ю12670 0.0 1003165
10:00+24ю23495 0.0 1002787
13:00+28ююз24350 0.0 10012533
16:00+29ююз233145 0.0 10002848
19:00+27юв24454 0.0 999456
22:00+21ююв2265100 0.0 100016
27 июня, пн
пн2701:00+17ююв22723 0.0 100032
04:00+15ююв228082 0.0 100121
07:00+19ююз2368100 0.0 1001140
10:00+23ююз235240 0.0 1001455
13:00+29юз233897 0.0 9991504
16:00+30ю2530100 0.0 9973493
19:00+18зсз1389100 0.8 1000131
22:00+16зсз0095100 0.9 100111
28 июня, вт
вт2801:00+15юв229685 0.5 100018
04:00+13ююв2294100 0.6 100118
07:00+16ю128851 0.0 1001128
10:00+23з23585 0.0 1000805
13:00+27з34434 0.0 9992046
16:00+25сз2451100 0.0 999421
19:00+26ссв124672 0.0 999918
22:00+17зюз31090100 1.3 1001394
29 июня, ср
ср2901:00+16юв1198100 7.3 100220
04:00+14ююз119816 7.3 100311
07:00+17ю119114 0.0 1003188
10:00+23ссв01645 0.0 1004750
13:00+28сз11479 0.0 10031724
16:00+28сз114344 0.0 10022015
19:00+25св236158 0.0 1003255
22:00+21в117165 0.1 100411